Погода в Нижнеангарске

Погода в Нижнеангарске : погода сейчас, прогноз погоды и архив. Всё, что Вы хотите узнать о погоде в Нижнеангарске!

Поиск расширенной информации на нашем сайте:

Другие новости

Новости СМИ2

Главная страница сайта

Новости сайта

03.07.2017

Напоминаем, что на нашем специализированном сайте Метеоцентр.Азия вы можете получить высокодетализированные автоматические прогнозы погоды по пунктам России, СНГ и мира в авиационном формате (включающие направление и скорость ветра, видимость, явления погоды, количество и форму облачности, нижнюю и верхнюю границу облачности).


Погода в Нижнеангарске - сегодня

Время (UTC), дата Ветер
(°,м/с) 
Видим.   Явления Облачность Т
(°С)
Тd
(°С)
f(%) Тe
(°С)
Pmin
(гПа)
dP
(гПа)
Po
(мм)
O2
(г/м3)
Тmin Tmax R s Состояние
почвы
21 21.11.17 360 (С) н/о    ясно 
-21 -26.9 59 -21  1030  0.4  724  318           
00 22.11.17 330 (СЗ) 20000 м    1/1 1000 м 
[Sc]
-21.8 -26.6 65 -22  1030.6  0.4  725  319  -21.9      19  равномерный
сухой снег
100% 
03 22.11.17 140 (ЮВ) 20000 м    3/1 1000 м верхняя 
[Sc|Ci fib]
-16.4 -25.2 47 -17  1029.1  -0.2  725  312           
06 22.11.17 060 (СВ) 20000 м    3/1 1000 м верхняя 
[Sc|Ci fib]
-16.9 -25.2 49 -19  1028.8  -0.4  724  313           
09 22.11.17 320 (СЗ) н/о    4/1 1000 м верхняя 
[Sc|Ci fib]
-19.3 -25.1 60 -20  1028.9  -0.4  724  316           
12 22.11.17 330 (СЗ) н/о    3/0 верхняя 
[Ci fib]
-20.7 -25.9 63 -21  1029.7  0.4  724  317    -14.9       
15 22.11.17 320 (СЗ) н/о    3/0 верхняя 
[Ci fib]
-21.2 -26 65 -24  1029.7  -0.2  724  318           
18 22.11.17 330 (СЗ) н/о    ясно 
-21.4 -26.3 65 -22  1030.2  0.5  725  318           
21 22.11.17 тихо ()   н/о    ясно 
-20.7 -25.8 64 -21  1029.9  -0.2  724  317           
00 23.11.17 310 (СЗ) 20000 м    4/0 верхняя 
[Ci fib]
-19.2 -24.9 61 -22  1029.5  724  316  -21.7      19  равномерный
сухой снег
100% 
03 23.11.17 040 (СВ) 20000 м    10/0 средняя, верхняя 
[Ac lent|Ci sp]
-16.3 -23.2 55 -20  1029.2  0.5  725  312           
06 23.11.17 050 (СВ) 20000 м    10/0 верхняя 
[Ci fib]
-15.9 -22.8 55 -18  1028.8  -0.3  725  312           
09 23.11.17 330 (СЗ) н/о    10/0 верхняя 
[Ci fib]
-17.9 -23.6 61 -18  1029.4  0.1  725  314           
12 23.11.17 330 (СЗ) н/о    3/0 верхняя 
[Ci fib]
-19.6 -24.2 67 -22  1029.5  -0.3  724  316    -15       
15 23.11.17 320 (СЗ) н/о    4/0 верхняя 
[Ci fib]
-20 -24.4 68 -23  1028.8  -0.8  724  316           
18 23.11.17 330 (СЗ) н/о    ясно 
-21.3 -25.4 69 -22  1028.8  -0.3  724  318           
21 23.11.17 320 (СЗ) н/о    ясно 
-21 -25.3 68 -21  1027.8  -0.9  723  317           
00 24.11.17 300 (СЗ) 20000 м    3/0 верхняя 
[Ci fib]
-21.8 -25.1 75 -22  1027.6  -0.4  723  318  -22.9      19  равномерный
сухой снег
100% 
03 24.11.17 060 (СВ) 20000 м    1/0 верхняя 
[Ci fib]
-17.8 -24.3 57 -18  1026.5  723  313           
06 24.11.17 060 (СВ) 20000 м    1/0 верхняя 
[Ci fib]
-16.7 -23.5 56 -21  1025.2  -1  722  311           
09 24.11.17 310 (СЗ) н/о    10/0 средняя, верхняя 
[Ac trans|Ci fib]
-18.1 -23.7 61 -18  1025.8  0.3  722  313           
12 24.11.17 340 (С) н/о    6/0 средняя, верхняя 
[Ac trans|Ci fib]
-20.4 -25.4 64 -21  1026.4  -0.1  722  316    -15.4       
15 24.11.17 340 (С) н/о    3/0 верхняя 
[Ci fib]
-20.4 -25.4 64 -21  1026.4  -0.5  722  316           
18 24.11.17 300 (СЗ) н/о    5/0 верхняя 
[Ci fib]
-21.7 -27.2 61 -22  1026.2  0.1  722  318           
21 24.11.17 360 (С) н/о    10/0 верхняя 
[Ci fib]
-22.9 -28.8 58 -23  1027  0.4  722  319           
Время (UTC), дата Ветер
(°,м/с) 
Видим.   Явления Облачность Т
(°С)
Тd
(°С)
f(%) Тe
(°С)
Pmin
(гПа)
dP
(гПа)
Po
(мм)
O2
(г/м3)
Тmin Tmax R s Состояние
почвы

Для получения пояснительной информации подведите курсор к названию столбца.

ПОГОДА в Нижнеангарске - архив

Всё, что Вы хотите узнать о погоде в Нижнеангарске - удобно и подробно!

Выберите нужную дату (начиная с 1 января 2015* года) и нажмите кнопку "Найти".
Будут отображены архивные сводки погоды по пункту Нижнеангарск, начиная с указанной даты.


Отображать данные в формате CSV (для использования в таблицах Excel)


Внимание! Наш архив погоды предназначен исключительно для личного некоммерческого использования в познавательных целях. Если Вам необходимы официальные справки о состоянии погоды (для производственных, юридических, коммерческих и т.п. целей), обращайтесь в органы Росгидромета.

*Примечание: данная дата относится к архиву по метеостанциям СССР (Россия, СНГ, Балтия).
Архив по метеостанциям Зарубежной Европы и Азии (кроме Китая) хранится 10 дней, по другим регионам земного шара (Китай, Африка, Америка, Австралия, Океания) - 1 день.

Нижнеангарск - район местоположения метеостанции


Название, широта, долгота, высота метеостанции:
Нижнеангарск 55.8°ш. 109.6°д. 487 м над ур. моря [Российская Федерация]

Дополнительная информация

В oтличие oт бoльшинства пoгoдных сайтoв мы публикуем пoдрoбную метеoинфoрмацию в детальнoм прoфессиoнальнoм фoрмате.

Характеристики температуры и влажнoсти вoздуха измеряются на высoте 2 м в тени вдали oт зданий и деревьев.
Скoрoсть ветра измеряется на высoте 10 м (на урoвне рoста челoвека скoрoсть ветра ниже в 1.5-2 раза). Если метеoстанция нахoдится в гoрoде или в лесу, тo скoрoсть ветра занижена на 2-4 м/с пo сравнению с oткрытым местoм. Скoрoсть ветра над акватoриями крупных рек и oзёр, а также на вершинах хoлмoв на 2-5 м/с выше, чем в oбычных услoвиях.
Атмoсфернoе давление в разных тoчках местнoсти мoжет значительнo oтличаться oт давления на метеoстанции, в зависимoсти oт услoвий рельефа (при пoдъёме на 10 м давление пoнижается примернo на 1 мм рт.ст.).